Zurück zum Katalog

QIANFAN-203

AktivKommunikationPO
NORAD 69802·PAYLOAD·🇨🇳 China

Gestartet Jul 4, 2026 von Taiyuan Satellite Launch Center

Loading…

Nächste Überflüge (nächste 24 Stunden)

TLE

AktuellSource: Space-Track

Epoche: Sep 14, 2026, 13:06 UTC

1 69802U 26153C   26257.54607296  .00000105  00000-0  53799-4 0  9996
2 69802  88.9981 352.1259 0006151   7.7463 352.3814 14.07835611 10213

Verfolge QIANFAN-203 in Echtzeit mit AllMySat

Download on the App Store